Home   Weather   Riverview   Past weeks

Flag for Canada Past Weather in Riverview, New Brunswick, Canada — Yesterday and Last 2 Weeks

Now
25 °F

Passing clouds.


Feels Like: 13 °F
Forecast: 18 / 29 °F
Wind: 13 mph from Southwest

Location: Moncton

Current Time: Dec 9, 2016 at 5:48:38 am

Latest Report: Dec 9, 2016 at 5:00 am


Visibility: 15 mi

Pressure: 29.51 "Hg

Humidity: 93%

Dew Point: 23 °F

Location of RiverviewLocation

Past Weather in Riverview — Graph

°F

Riverview Temperature Yesterday

Maximum temperature yesterday: 34 °F (at 2:00 pm)
Minimum temperature yesterday: 28 °F (at 12:00 am)
Average temperature yesterday: 31 °F

High & Low Weather Summary for the Past Weeks

 TemperatureHumidityPressure
High39 °F (Nov 26, 1:00 pm)100% (Nov 26, 9:00 am)30.39 "Hg (Nov 26, 9:00 am)
Low12 °F (Dec 5, 6:00 am)65% (Nov 25, 2:00 pm)29.28 "Hg (Dec 1, 10:00 pm)
Average30 °F89%29.94 "Hg
* Reported Nov 24 4:00 am — Dec 9 4:00 am, Riverview, Weather by CustomWeather, © 2016

Note: Actual official high and low records may vary slightly from our data, if they occured in-between our weather recording intervals... More about our weather records

Advertising

Riverview Weather History for the Previous 24 Hours

Scroll right to see more
 ConditionsComfort  
Time TempWeatherWind HumidityBarometerVisibility
4:00 am
Fri, Dec 9
27 °FPassing clouds.10 mph93%29.52 "Hg15 mi
3:00 am27 °FPassing clouds.10 mph93%29.52 "Hg15 mi
2:00 am27 °FLight snow. Passing clouds.7 mph100%29.52 "Hg12 mi
1:00 am28 °FLight snow. Overcast.7 mph100%29.53 "Hg10 mi
12:00 am30 °FLight snow. Ice fog.8 mph93%29.55 "Hg6 mi
11:00 pm
Thu, Dec 8
28 °FIce fog.7 mph93%29.57 "Hg1 mi
10:00 pm28 °FIce fog.6 mph100%29.58 "Hg2 mi
9:00 pm28 °FChilly.5 mph100%29.60 "Hg1 mi
8:00 pm30 °FIce fog.5 mph93%29.63 "Hg0 mi
7:00 pm30 °FIce fog.5 mph100%29.65 "Hg1 mi
6:00 pm32 °FPartly cloudy.3 mph93%29.67 "Hg15 mi
5:00 pm32 °FPassing clouds.3 mph100%29.69 "Hg12 mi
4:00 pm32 °FMore clouds than sun.6 mph100%29.71 "Hg12 mi
3:00 pm34 °FLight snow. Mostly cloudy.3 mph93%29.73 "Hg2 mi
2:00 pm34 °FLight snow. Mostly cloudy.5 mph93%29.74 "Hg3 mi
1:00 pm32 °FLight snow. Scattered clouds.6 mph100%29.76 "Hg2 mi
12:00 pm32 °FLight snow. Low clouds.6 mph100%29.80 "Hg1 mi
11:00 am32 °FLight snow. Low clouds.7 mph100%29.83 "Hg1 mi
10:00 am32 °FLight snow. Mostly cloudy.7 mph93%29.86 "Hg1 mi
9:49 am32 °FLight snow. Low clouds.8 mph93%29.86 "Hg1 mi
9:00 am30 °FMostly cloudy.9 mph100%29.86 "Hg12 mi
8:00 am30 °FMore clouds than sun.7 mph100%29.85 "Hg12 mi
7:00 am30 °FMostly cloudy.8 mph100%29.86 "Hg15 mi
6:00 am30 °FMostly cloudy.8 mph100%29.86 "Hg15 mi
5:00 am30 °FLow clouds.6 mph93%29.86 "Hg15 mi
Weather by CustomWeather, © 2016

See weather overviewHow to use our weather pages